This is the latest recevied weather packets stored in our database for station/object IW3HBX-3. If no packets are shown the sender has not sent any weather packets the latest 10 day(s).
| Time | Temp. | Humidity | Pressure | Rain* | Wind** | Luminosity | Snow |
|---|---|---|---|---|---|---|---|
| 1777673112 | 13.33° C | 53% | 1026.5 hPa | 0 mm | - | 0 W/m² | - |
| 1777672812 | 13.89° C | 52% | 1026.5 hPa | 0 mm | - | 0 W/m² | - |
| 1777672512 | 13.89° C | 51% | 1026.5 hPa | 0 mm | - | 0 W/m² | - |
| 1777672212 | 13.89° C | 52% | 1026.3 hPa | 0 mm | - | 0 W/m² | - |
| 1777671912 | 13.89° C | 53% | 1026.4 hPa | 0 mm | - | 0 W/m² | - |
| 1777671611 | 13.89° C | 52% | 1026.3 hPa | 0 mm | - | 0 W/m² | - |
| 1777671311 | 13.89° C | 49% | 1026.2 hPa | 0 mm | - | 0 W/m² | - |
| 1777671011 | 13.89° C | 50% | 1026.3 hPa | 0 mm | - | 0 W/m² | - |
| 1777670711 | 13.89° C | 52% | 1026.2 hPa | 0 mm | - | 0 W/m² | - |
| 1777670111 | 14.44° C | 53% | 1026.2 hPa | 0 mm | - | 0 W/m² | - |
| 1777669811 | 14.44° C | 50% | 1026.2 hPa | 0 mm | - | 0 W/m² | - |
| 1777669511 | 14.44° C | 49% | 1026.2 hPa | 0 mm | - | 0 W/m² | - |
| 1777669211 | 14.44° C | 49% | 1026.2 hPa | 0 mm | - | 0 W/m² | - |
| 1777668911 | 14.44° C | 48% | 1026.1 hPa | 0 mm | - | 0 W/m² | - |
| 1777668611 | 14.44° C | 50% | 1026.1 hPa | 0 mm | - | 0 W/m² | - |
| 1777668311 | 15° C | 49% | 1026.2 hPa | 0 mm | - | 0 W/m² | - |
| 1777667710 | 15° C | 47% | 1026.1 hPa | 0 mm | - | 0 W/m² | - |
| 1777667419 | 14.44° C | 47% | 1026.1 hPa | 0 mm | - | 0 W/m² | - |
| 1777667110 | 14.44° C | 48% | 1026.1 hPa | 0 mm | - | 0 W/m² | - |
| 1777666510 | 15° C | 47% | 1026 hPa | 0 mm | - | 0 W/m² | - |
| 1777666210 | 15° C | 47% | 1026 hPa | 0 mm | - | 0 W/m² | - |
| 1777665910 | 15° C | 48% | 1025.9 hPa | 0 mm | - | 0 W/m² | - |
| 1777665310 | 15° C | 46% | 1026 hPa | 0 mm | - | 0 W/m² | - |
| 1777665010 | 15° C | 44% | 1025.9 hPa | 0 mm | - | 0 W/m² | - |
| 1777664710 | 15° C | 44% | 1025.9 hPa | 0 mm | - | 0 W/m² | - |
* Rain latest hour (hover to see other rain measurements)
** Current wind speed in m/s (hover to see current wind gust speed)